Columbia Owens, SC

3:57 PM EDT on April 27, 2017 (GMT -0400)
Columbia Owens Downtown

Weather History for KCUB - October, 2012

Change the Weather History Date:

Tuesday, October 30, 2012

  Actual Average Record
Temperature  
Mean Temperature 54 °F 60 °F  
Max Temperature 59 °F 72 °F 87 °F (2016)
Min Temperature 49 °F 49 °F 35 °F (2008)
Degree Days  
Heating Degree Days 11 6  
Month to date heating degree days 63 81  
Since 1 July heating degree days 63 84  
Cooling Degree Days 0 1  
Month to date cooling degree days 101 93  
Year to date cooling degree days 2515 2240  
Growing Degree Days 2 (Base 50)    
Moisture  
Dew Point 29 °F    
Average Humidity 40    
Maximum Humidity 50    
Minimum Humidity 30    
Precipitation  
Precipitation 0.00 in 0.08 in 0.04 in (2002)
Month to date precipitation 1.30 3.23  
Year to date precipitation 38.13 39.12  
Sea Level Pressure  
Sea Level Pressure 29.60 in    
Wind  
Wind Speed 13 mph (West)    
Max Wind Speed 20 mph    
Max Gust Speed 29 mph    
Visibility 9 miles    
Events      
T = Trace of Precipitation, MM = Missing Value Source: NWS Daily Summary

Daily Weather History Graph

Daily Weather History Graph

Search for Another Location

Airport or City:

Trip Planner

Search our weather history database for the weather conditions in past years. The results will help you decide how hot, cold, wet, or windy it might be!

Date:

Astronomy

Oct. 30, 2012 Rise Set
Actual Time 7:42 AM EDT 6:32 PM EDT
Civil Twilight 7:16 AM EDT 6:58 PM EDT
Nautical Twilight 6:46 AM EDT 7:27 PM EDT
Astronomical Twilight 6:17 AM EDT 7:57 PM EDT
Moon 7:05 PM EDT (10/30) 8:24 AM EDT (10/30)
Length of Visible Light 11h 42m
Length of Day
10h 50m
Full, 99% of the Moon is Illuminated
Oct 30
Full
Nov 6
Last Quarter
Nov 13
New
Nov 20
First Quarter
Nov 28
Full

Hourly Weather History & Observations

Time (EDT) Temp. Dew Point Humidity Pressure Visibility Wind Dir Wind Speed Gust Speed Precip Events Conditions
12:53 AM 52.0 °F 30.9 °F 45% 29.57 in 10.0 mi West 12.7 mph 23.0 mph N/A   Mostly Cloudy
1:53 AM 50.0 °F 30.9 °F 48% 29.56 in 10.0 mi West 10.4 mph - N/A   Overcast
3:53 AM 50.0 °F 30.0 °F 46% 29.53 in 10.0 mi West 12.7 mph - N/A   Overcast
4:53 AM 50.0 °F 28.9 °F 44% 29.53 in 10.0 mi West 11.5 mph 19.6 mph N/A   Overcast
5:53 AM 48.9 °F 28.0 °F 44% 29.54 in 10.0 mi West 13.8 mph - N/A   Overcast
7:53 AM 48.9 °F 28.0 °F 44% 29.55 in 10.0 mi West 9.2 mph 18.4 mph N/A   Overcast
8:53 AM 50.0 °F 28.0 °F 43% 29.57 in 10.0 mi West 12.7 mph - N/A   Overcast
9:53 AM 51.1 °F 30.0 °F 44% 29.57 in 10.0 mi West 15.0 mph 19.6 mph N/A   Overcast
10:53 AM 53.1 °F 30.9 °F 43% 29.57 in 10.0 mi West 13.8 mph 19.6 mph N/A   Overcast
11:29 AM 53.6 °F 30.2 °F 41% 29.57 in 1.2 mi West 12.7 mph 20.7 mph N/A   Haze
11:32 AM 53.6 °F 30.2 °F 41% 29.57 in 0.8 mi West 15.0 mph - N/A   Haze
11:39 AM 53.6 °F 30.2 °F 41% 29.57 in 2.0 mi West 11.5 mph - N/A   Haze
11:53 AM 54.0 °F 30.0 °F 40% 29.58 in 10.0 mi West 15.0 mph 21.9 mph N/A   Mostly Cloudy
12:53 PM 55.9 °F 28.9 °F 36% 29.57 in 10.0 mi West 12.7 mph 21.9 mph N/A   Overcast
1:53 PM 57.0 °F 28.0 °F 33% 29.56 in 10.0 mi West 13.8 mph 21.9 mph N/A   Mostly Cloudy
2:53 PM 57.9 °F 28.0 °F 32% 29.56 in 10.0 mi West 13.8 mph 26.5 mph N/A   Scattered Clouds
3:53 PM 57.9 °F 27.0 °F 31% 29.57 in 10.0 mi West 13.8 mph 23.0 mph N/A   Scattered Clouds
4:53 PM 55.9 °F 28.0 °F 34% 29.60 in 10.0 mi West 15.0 mph 24.2 mph N/A   Clear
5:53 PM 55.0 °F 28.9 °F 37% 29.62 in 10.0 mi West 18.4 mph 28.8 mph N/A   Partly Cloudy
6:53 PM 55.0 °F 30.0 °F 38% 29.65 in 10.0 mi West 15.0 mph 23.0 mph N/A   Clear
7:53 PM 55.0 °F 30.9 °F 40% 29.68 in 10.0 mi WNW 10.4 mph 16.1 mph N/A   Partly Cloudy
8:53 PM 54.0 °F 30.0 °F 40% 29.69 in 10.0 mi NW 10.4 mph 19.6 mph N/A   Overcast
9:53 PM 54.0 °F 30.0 °F 40% 29.71 in 10.0 mi WNW 8.1 mph - N/A   Scattered Clouds
10:53 PM 54.0 °F 28.9 °F 38% 29.72 in 10.0 mi WNW 8.1 mph 17.3 mph N/A   Partly Cloudy
11:53 PM 53.1 °F 28.0 °F 38% 29.72 in 10.0 mi West 11.5 mph - N/A   Mostly Cloudy